TRLO2: Red River Nr Terral, OK

Data processed at Fri Dec 08 2017 23:07


All information presented herein is the property of the government of the United States of America and may be revised or deleted at any time without prior notice.
Dissemination of this information without the expressed written consent of the Public Affairs Office, Tulsa District U.S. Army Corps of Engineers is strictly prohibited.
These data are gathered electronically and, as presented, have not undergone any form of quality control. These data are not guaranteed to be valid or correct.
Go to home page.
Go to station list.

Upstream stations:

Downstream station:
Previous Day
Next Day
Current Day
    
SHEF ID:       TRLO2     Red Rv nr Terral, OK
STATION TYPE:  

               PRECIP     STAGE  RIV-FLOW   VOLTAGE  BAT-LOAD
                   in        ft       cfs      volt      volt
              Ccp-Rev   Ccp-Rev   Ccp-Rev   Ccp-Rev   Ccp-Rev
(US/Central)
12/06 00:00      0.00      7.36       865     13.10     12.60
12/06 01:00      0.00      7.37       872     13.00     12.60
12/06 02:00      0.00      7.36       865     13.00     12.54
12/06 03:00      0.00      7.36       865     13.00     12.54
12/06 04:00      0.00      7.36       865     12.90     12.48
12/06 05:00      0.00      7.35       858     12.90     12.42
12/06 06:00      0.00      7.35       858     12.90     12.42
12/06 07:00      0.00      7.35       858     12.80     12.36
12/06 08:00      0.00      7.34       851     12.90     12.36
12/06 09:00      0.00      7.35       858     13.20     12.36
12/06 10:00      0.00      7.35       858     13.80     12.65
12/06 11:00      0.00      7.36       865     13.90     13.30
12/06 12:00      0.00      7.35       858     14.80     13.36
12/06 13:00      0.00      7.35       858     14.40     13.53
12/06 14:00      0.00      7.35       858     14.40     14.12
12/06 15:00      0.00      7.31       831     14.70     13.42
12/06 16:00      0.00      7.36       865     14.30     13.36
12/06 17:00      0.00      7.36       865     13.40     13.30
12/06 18:00      0.00      7.35       858     13.20     12.95
12/06 19:00      0.00      7.36       865     13.20     12.77
12/06 20:00      0.00      7.36       865     13.20     12.71
12/06 21:00      0.00      7.36       865     13.10     12.71
12/06 22:00      0.00      7.36       865     13.10     12.65
12/06 23:00      0.00      7.36       865     13.10     12.65